Regional Weather Roundup
Issued by NWS

Home | Current Version | Previous Version | Graphics & Text | Print | Product List | Glossary On
Versions: 1 2 3 4 5 6 7 8 9 10 11 12 13 14 15 16 17 18 19 20 21 22 23 24 25 26 27 28 29 30 31 32 33 34 35 36 37 38 39 40 41 42 43 44 45 46 47 48 49 50
000
ASUS45 KCYS 210310
RWRWY

WYOMING REGIONAL WEATHER ROUNDUP
NATIONAL WEATHER SERVICE CHEYENNE WY
900 PM MDT WED AUG 20 2014

NOTE:  "FAIR" INDICATES FEW OR NO CLOUDS BELOW 12,000 FEET
WITH NO SIGNIFICANT WEATHER AND/OR OBSTRUCTIONS TO VISIBILITY.

WYZ001-210400-
YELLOWSTONE NATIONAL PARK

CITY           SKY/WX    TMP DP  RH WIND       PRES   REMARKS
LK YELLOWSTONE   N/A     45  44  97 VRB5      30.21R
W YELLOWSTONE  NOT AVBL

$$
WYZ002>013-054>058-071-098>099-210400-
NORTHERN WYOMING

CITY           SKY/WX    TMP DP  RH WIND       PRES   REMARKS
JACKSON        CLOUDY    52  52 100 N6        30.16R
CODY           CLOUDY    59  48  67 SW30G37   30.01R
GREYBULL       MOCLDY    75  42  30 SW6       29.85R
WORLAND        CLOUDY    71  46  40 VRB3      29.88R
SHERIDAN       MOCLDY    63  48  58 SE3       29.88R
BUFFALO        MOCLDY    63  45  51 W8        29.95R
GILLETTE       PTCLDY    64  46  52 CALM      29.90R
HULETT         FAIR      68  50  52 MISG      29.91
NEWCASTLE      FAIR      70  43  37 N3        29.87

$$
WYZ014>020-022>026-101>103-210400-
CENTRAL WYOMING

CITY           SKY/WX    TMP DP  RH WIND       PRES   REMARKS
BIG PINEY      CLOUDY    56  43  61 NE7       30.15R
PINEDALE       MOCLDY    54  43  66 NW5       30.16S
DUBOIS         RAIN      50  45  81 NW18      30.15R
LANDER         MOCLDY    64  46  52 W10       29.98R
RIVERTON       MOCLDY    67  39  35 W8        29.98R
CASPER         MOCLDY    68  43  40 SW14      29.96R
DOUGLAS        MOCLDY    72  45  37 W9        29.93R

$$
WYZ021-027>030-104>119-210400-
SOUTHERN WYOMING

CITY           SKY/WX    TMP DP  RH WIND       PRES   REMARKS
EVANSTON       PTCLDY    62  43  49 SW12      30.12R
KEMMERER       CLOUDY    57  46  67 N12G22    30.13R
FORT BRIDGER   FAIR      62  46  53 SW13      30.12S
ROCK SPRINGS   PTCLDY    59  44  57 N3        30.10S
DIXON          LGT RAIN  56  53  92 E5        30.17S
RAWLINS        CLOUDY    60  47  61 S6        30.11R
SARATOGA       CLOUDY    52  50  93 MISG      30.16R
LARAMIE        PTCLDY    60  46  59 SW7       30.12S
CHEYENNE       MOCLDY    68  46  45 W5        30.03R
TORRINGTON     MOCLDY    73  49  42 W7        29.87R
PINE BLUFFS    FAIR      70  48  46 N3        29.97S

$$


USA.gov is the U.S. government's official web portal to all federal, state and local government web resources and services.